| time (UTC) | temp C | wind direction | speed KPH | gust KPH | rain 1hr cm | rain 24hr cm | rain mn cm | humidity % | barometer mb |
| 20260504040508 | 15 | 182 | 0.0 | 3.2 | 0.00 | 0.00 | 0.00 | 53 | 1004.7 |
| 20260504040026 | 15 | 332 | 0.0 | 3.2 | 0.00 | 0.00 | 0.00 | 52 | 1004.7 |
| 20260504035510 | 15 | 91 | 0.0 | 3.2 | 0.00 | 0.00 | 0.00 | 52 | 1004.7 |
| 20260504035009 | 15 | 291 | 0.0 | 3.2 | 0.00 | 0.00 | 0.00 | 52 | 1004.7 |
| 20260504034526 | 15 | 232 | 0.0 | 3.2 | 0.00 | 0.00 | 0.00 | 52 | 1004.7 |
| 20260504034009 | 15 | 315 | 0.0 | 3.2 | 0.00 | 0.00 | 0.00 | 52 | 1004.8 |
| 20260504033504 | 15 | 352 | 0.0 | 3.2 | 0.00 | 0.00 | 0.00 | 52 | 1004.7 |
| 20260504033015 | 15 | 352 | 0.0 | 3.2 | 0.00 | 0.00 | 0.00 | 51 | 1004.8 |
| 20260504032505 | 15 | 256 | 0.0 | 3.2 | 0.00 | 0.00 | 0.00 | 51 | 1004.9 |
| 20260504032008 | 15 | 255 | 0.0 | 3.2 | 0.00 | 0.00 | 0.00 | 51 | 1005.0 |
| 20260504031519 | 15 | 255 | 0.0 | 3.2 | 0.00 | 0.00 | 0.00 | 51 | 1005.0 |
| 20260504031012 | 15 | 193 | 0.0 | 3.2 | 0.00 | 0.00 | 0.00 | 51 | 1004.9 |
| 20260504030506 | 16 | 304 | 0.0 | 3.2 | 0.00 | 0.00 | 0.00 | 51 | 1004.9 |
| 20260504030026 | 16 | 306 | 0.0 | 3.2 | 0.00 | 0.00 | 0.00 | 50 | 1004.8 |
| 20260504025508 | 16 | 262 | 0.0 | 3.2 | 0.00 | 0.00 | 0.00 | 50 | 1004.9 |
| 20260504025010 | 15 | 161 | 0.0 | 3.2 | 0.00 | 0.00 | 0.00 | 51 | 1004.9 |
| 20260504024530 | 15 | 196 | 0.0 | 3.2 | 0.00 | 0.00 | 0.00 | 51 | 1004.8 |
| 20260504024008 | 15 | 238 | 1.6 | 3.2 | 0.00 | 0.00 | 0.00 | 51 | 1004.8 |
| 20260504023508 | 15 | 194 | 0.0 | 3.2 | 0.00 | 0.00 | 0.00 | 51 | 1004.8 |
| 20260504023029 | 15 | 144 | 0.0 | 3.2 | 0.00 | 0.00 | 0.00 | 51 | 1004.8 |
| 20260504022506 | 15 | 227 | 0.0 | 3.2 | 0.00 | 0.00 | 0.00 | 51 | 1004.8 |
| 20260504022011 | 15 | 188 | 1.6 | 4.8 | 0.00 | 0.00 | 0.00 | 51 | 1004.8 |
| 20260504021516 | 15 | 178 | 1.6 | 4.8 | 0.00 | 0.00 | 0.00 | 51 | 1004.7 |
| 20260504021007 | 16 | 213 | 0.0 | 3.2 | 0.00 | 0.00 | 0.00 | 50 | 1004.7 |
| 20260504020508 | 16 | 182 | 0.0 | 3.2 | 0.00 | 0.00 | 0.00 | 50 | 1004.7 |
| 20260504020020 | 16 | 237 | 0.0 | 3.2 | 0.00 | 0.00 | 0.00 | 50 | 1004.7 |
| 20260504015510 | 16 | 207 | 0.0 | 3.2 | 0.00 | 0.00 | 0.00 | 50 | 1004.7 |
| 20260504015011 | 16 | 184 | 0.0 | 1.6 | 0.00 | 0.00 | 0.00 | 50 | 1004.7 |
| 20260504014534 | 15 | 221 | 0.0 | 3.2 | 0.00 | 0.00 | 0.00 | 50 | 1004.6 |
| 20260504014007 | 15 | 281 | 0.0 | 3.2 | 0.00 | 0.00 | 0.00 | 50 | 1004.5 |
| 20260504013508 | 16 | 184 | 0.0 | 3.2 | 0.00 | 0.00 | 0.00 | 50 | 1004.5 |
| 20260504013036 | 16 | 246 | 0.0 | 3.2 | 0.00 | 0.00 | 0.00 | 49 | 1004.6 |
| 20260504012508 | 16 | 235 | 0.0 | 3.2 | 0.00 | 0.00 | 0.00 | 49 | 1004.7 |
| 20260504012009 | 16 | 268 | 0.0 | 3.2 | 0.00 | 0.00 | 0.00 | 48 | 1004.7 |
| 20260504011517 | 16 | 283 | 0.0 | 3.2 | 0.00 | 0.00 | 0.00 | 48 | 1004.7 |
| 20260504011010 | 16 | 290 | 0.0 | 3.2 | 0.00 | 0.00 | 0.00 | 47 | 1004.7 |
| 20260504010504 | 16 | 282 | 0.0 | 3.2 | 0.00 | 0.00 | 0.00 | 47 | 1004.6 |
| 20260504010021 | 17 | 250 | 0.0 | 3.2 | 0.00 | 0.00 | 0.00 | 47 | 1004.6 |
| 20260504005510 | 17 | 286 | 0.0 | 3.2 | 0.00 | 0.00 | 0.00 | 46 | 1004.6 |
| 20260504005011 | 17 | 307 | 0.0 | 3.2 | 0.00 | 0.00 | 0.00 | 46 | 1004.5 |
| 20260504004532 | 17 | 351 | 0.0 | 3.2 | 0.00 | 0.00 | 0.00 | 46 | 1004.5 |
| 20260504004008 | 17 | 266 | 0.0 | 3.2 | 0.00 | 0.00 | 0.00 | 45 | 1004.5 |
| 20260504003508 | 17 | 293 | 0.0 | 3.2 | 0.00 | 0.00 | 0.00 | 45 | 1004.5 |
| 20260504003025 | 17 | 11 | 0.0 | 3.2 | 0.00 | 0.00 | 0.00 | 45 | 1004.4 |
| 20260504002510 | 18 | 202 | 1.6 | 3.2 | 0.00 | 0.00 | 0.00 | 44 | 1004.4 |
| 20260504002007 | 18 | 347 | 1.6 | 6.4 | 0.00 | 0.00 | 0.00 | 44 | 1004.5 |
| 20260504001528 | 18 | 37 | 1.6 | 8.0 | 0.00 | 0.00 | 0.00 | 43 | 1004.3 |
| 20260504001008 | 18 | 347 | 1.6 | 8.0 | 0.00 | 0.00 | 0.00 | 43 | 1004.3 |
| 20260504000505 | 18 | 272 | 3.2 | 6.4 | 0.00 | 0.00 | 0.00 | 43 | 1004.2 |
| 20260504000019 | 18 | 5 | 1.6 | 3.2 | 0.00 | 0.00 | 0.00 | 43 | 1004.2 |
| 20260503235507 | 18 | 326 | 0.0 | 4.8 | 0.00 | 0.00 | 0.00 | 43 | 1004.2 |
| 20260503235007 | 18 | 103 | 1.6 | 6.4 | 0.00 | 0.00 | 0.00 | 43 | 1004.3 |
| 20260503234504 | 18 | 341 | 0.0 | 6.4 | 0.00 | 0.00 | 0.00 | 43 | 1004.2 |
| 20260503234004 | 18 | 13 | 1.6 | 4.8 | 0.00 | 0.00 | 0.00 | 42 | 1004.2 |
| 20260503233503 | 18 | 319 | 1.6 | 8.0 | 0.00 | 0.00 | 0.00 | 43 | 1004.2 |
| 20260503233009 | 18 | 105 | 1.6 | 12.9 | 0.00 | 0.00 | 0.00 | 42 | 1004.3 |
| 20260503232502 | 18 | 24 | 3.2 | 12.9 | 0.00 | 0.00 | 0.00 | 42 | 1004.4 |
| 20260503232012 | 18 | 202 | 1.6 | 9.7 | 0.00 | 0.00 | 0.00 | 42 | 1004.5 |
| 20260503231510 | 18 | 78 | 1.6 | 9.7 | 0.00 | 0.00 | 0.00 | 42 | 1004.6 |
| 20260503231006 | 18 | 179 | 3.2 | 6.4 | 0.00 | 0.00 | 0.00 | 41 | 1004.6 |
| 20260503230509 | 18 | 222 | 3.2 | 8.0 | 0.00 | 0.00 | 0.00 | 41 | 1004.5 |
| 20260503230015 | 18 | 302 | 4.8 | 8.0 | 0.00 | 0.00 | 0.00 | 41 | 1004.6 |
| 20260503225505 | 18 | 327 | 3.2 | 9.7 | 0.00 | 0.00 | 0.00 | 42 | 1004.8 |
| 20260503225010 | 18 | 350 | 3.2 | 11.3 | 0.00 | 0.00 | 0.00 | 41 | 1004.8 |
| 20260503224520 | 18 | 71 | 4.8 | 11.3 | 0.00 | 0.00 | 0.00 | 41 | 1004.7 |
| 20260503224003 | 18 | 76 | 3.2 | 11.3 | 0.00 | 0.00 | 0.00 | 41 | 1004.7 |
| 20260503223504 | 18 | 251 | 3.2 | 11.3 | 0.00 | 0.00 | 0.00 | 42 | 1004.7 |
| 20260503223006 | 18 | 294 | 1.6 | 11.3 | 0.00 | 0.00 | 0.00 | 43 | 1004.7 |
| 20260503222502 | 18 | 173 | 1.6 | 8.0 | 0.00 | 0.00 | 0.00 | 43 | 1004.7 |
| 20260503222002 | 18 | 22 | 3.2 | 16.1 | 0.00 | 0.00 | 0.00 | 43 | 1004.8 |
| 20260503221509 | 18 | 273 | 3.2 | 16.1 | 0.00 | 0.00 | 0.00 | 42 | 1004.7 |
| 20260503221009 | 18 | 273 | 4.8 | 14.5 | 0.00 | 0.00 | 0.00 | 42 | 1004.8 |
| 20260503220514 | 18 | 159 | 3.2 | 9.7 | 0.00 | 0.00 | 0.00 | 41 | 1004.8 |
| 20260503220014 | 18 | 295 | 1.6 | 14.5 | 0.00 | 0.00 | 0.00 | 42 | 1004.9 |
| 20260503215506 | 18 | 171 | 3.2 | 11.3 | 0.00 | 0.00 | 0.00 | 42 | 1004.9 |
| 20260503215006 | 18 | 338 | 3.2 | 8.0 | 0.00 | 0.00 | 0.00 | 43 | 1004.8 |
| 20260503214519 | 18 | 275 | 3.2 | 8.0 | 0.00 | 0.00 | 0.00 | 43 | 1005.0 |
| 20260503214005 | 18 | 22 | 3.2 | 6.4 | 0.00 | 0.00 | 0.00 | 42 | 1005.0 |
| 20260503213505 | 18 | 134 | 3.2 | 12.9 | 0.00 | 0.00 | 0.00 | 42 | 1005.0 |
| 20260503213007 | 18 | 126 | 3.2 | 12.9 | 0.00 | 0.00 | 0.00 | 41 | 1005.1 |
| 20260503212508 | 19 | 290 | 3.2 | 9.7 | 0.00 | 0.00 | 0.00 | 41 | 1005.2 |
| 20260503212004 | 19 | 170 | 3.2 | 12.9 | 0.00 | 0.00 | 0.00 | 41 | 1005.3 |
| 20260503211507 | 19 | 68 | 3.2 | 14.5 | 0.00 | 0.00 | 0.00 | 42 | 1005.3 |
| 20260503211003 | 19 | 215 | 4.8 | 16.1 | 0.00 | 0.00 | 0.00 | 42 | 1005.2 |
| 20260503210503 | 19 | 180 | 3.2 | 16.1 | 0.00 | 0.00 | 0.00 | 42 | 1005.3 |
| 20260503210013 | 19 | 267 | 4.8 | 12.9 | 0.00 | 0.00 | 0.00 | 42 | 1005.3 |
| 20260503205503 | 18 | 53 | 4.8 | 16.1 | 0.00 | 0.00 | 0.00 | 41 | 1005.4 |
| 20260503205007 | 18 | 58 | 6.4 | 16.1 | 0.00 | 0.00 | 0.00 | 42 | 1005.4 |
| 20260503204007 | 18 | 130 | 3.2 | 16.1 | 0.00 | 0.00 | 0.00 | 41 | 1005.6 |
| 20260503203511 | 18 | 296 | 6.4 | 16.1 | 0.00 | 0.00 | 0.00 | 42 | 1005.8 |
| 20260503203042 | 18 | 307 | 3.2 | 17.7 | 0.00 | 0.00 | 0.00 | 44 | 1005.7 |
| 20260503202510 | 18 | 155 | 4.8 | 17.7 | 0.00 | 0.00 | 0.00 | 44 | 1005.7 |
| 20260503202004 | 17 | 352 | 4.8 | 14.5 | 0.00 | 0.00 | 0.00 | 44 | 1005.8 |
| 20260503201508 | 18 | 19 | 6.4 | 12.9 | 0.00 | 0.00 | 0.00 | 44 | 1005.9 |
| 20260503201006 | 18 | 302 | 3.2 | 12.9 | 0.00 | 0.00 | 0.00 | 44 | 1006.1 |
| 20260503200502 | 18 | 332 | 6.4 | 27.4 | 0.00 | 0.00 | 0.00 | 45 | 1006.2 |
| 20260503200013 | 17 | 93 | 4.8 | 27.4 | 0.00 | 0.00 | 0.00 | 46 | 1006.4 |
| 20260503195506 | 17 | 169 | 6.4 | 16.1 | 0.00 | 0.00 | 0.00 | 45 | 1006.4 |
| 20260503195005 | 18 | 318 | 4.8 | 16.1 | 0.00 | 0.00 | 0.00 | 45 | 1006.5 |
| 20260503194531 | 18 | 101 | 4.8 | 14.5 | 0.00 | 0.00 | 0.00 | 44 | 1006.6 |
| 20260503194006 | 18 | 348 | 4.8 | 22.5 | 0.00 | 0.00 | 0.00 | 43 | 1006.6 |
| 20260503193508 | 17 | 69 | 11.3 | 25.7 | 0.00 | 0.00 | 0.00 | 44 | 1006.7 |
| 20260503193019 | 18 | 186 | 8.0 | 25.7 | 0.00 | 0.00 | 0.00 | 43 | 1006.8 |
| 20260503192508 | 17 | 64 | 3.2 | 22.5 | 0.00 | 0.00 | 0.00 | 44 | 1006.8 |
| 20260503192009 | 17 | 179 | 8.0 | 22.5 | 0.00 | 0.00 | 0.00 | 42 | 1006.7 |
| 20260503191526 | 17 | 230 | 8.0 | 22.5 | 0.00 | 0.00 | 0.00 | 42 | 1006.8 |
| 20260503191003 | 18 | 286 | 6.4 | 29.0 | 0.00 | 0.00 | 0.00 | 40 | 1006.8 |
| 20260503190502 | 18 | 99 | 9.7 | 29.0 | 0.00 | 0.00 | 0.00 | 40 | 1006.7 |
| 20260503190008 | 18 | 11 | 4.8 | 16.1 | 0.00 | 0.00 | 0.00 | 40 | 1006.7 |
| 20260503185511 | 18 | 146 | 4.8 | 19.3 | 0.00 | 0.00 | 0.00 | 39 | 1006.8 |
| 20260503185006 | 18 | 71 | 6.4 | 19.3 | 0.00 | 0.00 | 0.00 | 41 | 1006.8 |
| 20260503184521 | 18 | 41 | 4.8 | 25.7 | 0.00 | 0.00 | 0.00 | 42 | 1006.8 |
| 20260503184006 | 17 | 50 | 6.4 | 25.7 | 0.00 | 0.00 | 0.00 | 43 | 1006.8 |
| 20260503183505 | 17 | 160 | 12.9 | 32.2 | 0.00 | 0.00 | 0.00 | 44 | 1006.9 |
| 20260503183020 | 17 | 244 | 9.7 | 32.2 | 0.00 | 0.00 | 0.00 | 44 | 1007.0 |
| 20260503182509 | 17 | 166 | 4.8 | 24.1 | 0.00 | 0.00 | 0.00 | 46 | 1007.1 |
| 20260503182007 | 17 | 348 | 8.0 | 24.1 | 0.00 | 0.00 | 0.00 | 44 | 1007.1 |
| 20260503181523 | 17 | 155 | 6.4 | 25.7 | 0.00 | 0.00 | 0.00 | 45 | 1007.3 |
| 20260503181007 | 16 | 57 | 12.9 | 25.7 | 0.00 | 0.00 | 0.00 | 46 | 1007.5 |
| 20260503180511 | 17 | 339 | 8.0 | 30.6 | 0.00 | 0.00 | 0.00 | 46 | 1007.5 |
| 20260503180010 | 17 | 140 | 9.7 | 30.6 | 0.00 | 0.00 | 0.00 | 46 | 1007.5 |
| 20260503175502 | 17 | 163 | 9.7 | 25.7 | 0.00 | 0.00 | 0.00 | 45 | 1007.5 |
| 20260503175002 | 17 | 158 | 8.0 | 25.7 | 0.00 | 0.00 | 0.00 | 47 | 1007.7 |
| 20260503174512 | 17 | 221 | 4.8 | 25.7 | 0.00 | 0.00 | 0.00 | 47 | 1007.9 |
| 20260503174006 | 16 | 159 | 11.3 | 22.5 | 0.00 | 0.00 | 0.00 | 48 | 1007.9 |
| 20260503173506 | 16 | 123 | 6.4 | 25.7 | 0.00 | 0.00 | 0.00 | 50 | 1008.0 |
| 20260503173016 | 16 | 333 | 4.8 | 25.7 | 0.00 | 0.00 | 0.00 | 50 | 1008.0 |
| 20260503172505 | 15 | 149 | 9.7 | 35.4 | 0.00 | 0.00 | 0.00 | 51 | 1008.2 |
| 20260503172011 | 15 | 136 | 6.4 | 35.4 | 0.00 | 0.00 | 0.00 | 53 | 1008.4 |
| 20260503171524 | 15 | 140 | 9.7 | 25.7 | 0.00 | 0.00 | 0.00 | 52 | 1008.6 |
| 20260503171007 | 15 | 11 | 11.3 | 25.7 | 0.00 | 0.00 | 0.00 | 52 | 1008.7 |
| 20260503170508 | 15 | 163 | 3.2 | 29.0 | 0.00 | 0.00 | 0.00 | 52 | 1008.7 |
| 20260503151011 | 12 | 109 | 6.4 | 16.1 | 0.00 | 0.00 | 0.00 | 55 | 1010.3 |
| 20260503150509 | 13 | 293 | 6.4 | 17.7 | 0.00 | 0.00 | 0.00 | 53 | 1010.2 |
| 20260503131004 | 11 | 312 | 3.2 | 12.9 | 0.00 | 0.00 | 0.00 | 52 | 1011.1 |
| 20260503130513 | 11 | 217 | 3.2 | 12.9 | 0.00 | 0.00 | 0.00 | 52 | 1011.1 |
| 20260503110511 | 8 | 306 | 1.6 | 8.0 | 0.00 | 0.00 | 0.00 | 54 | 1011.0 |
| 20260503090510 | 7 | 9 | 1.6 | 8.0 | 0.00 | 0.00 | 0.00 | 53 | 1011.7 |
| 20260503081514 | 7 | 299 | 1.6 | 6.4 | 0.00 | 0.00 | 0.00 | 52 | 1012.1 |
| 20260503081003 | 7 | 277 | 3.2 | 6.4 | 0.00 | 0.00 | 0.00 | 52 | 1012.1 |
| 20260503080503 | 8 | 12 | 1.6 | 6.4 | 0.00 | 0.00 | 0.00 | 51 | 1012.2 |
| 20260503072508 | 8 | 21 | 1.6 | 9.7 | 0.00 | 0.00 | 0.00 | 50 | 1012.4 |
| 20260503072007 | 8 | 325 | 3.2 | 9.7 | 0.00 | 0.00 | 0.00 | 50 | 1012.4 |
| 20260503071526 | 8 | 5 | 3.2 | 12.9 | 0.00 | 0.00 | 0.00 | 50 | 1012.5 |
| 20260503071003 | 8 | 348 | 3.2 | 12.9 | 0.00 | 0.00 | 0.00 | 49 | 1012.5 |
| 20260503070503 | 8 | 138 | 3.2 | 9.7 | 0.00 | 0.00 | 0.00 | 49 | 1012.5 |
| 20260503055003 | 8 | 31 | 0.0 | 11.3 | 0.00 | 0.00 | 0.00 | 49 | 1013.2 |
| 20260503054519 | 8 | 201 | 3.2 | 11.3 | 0.00 | 0.00 | 0.00 | 48 | 1013.1 |
| 20260503054003 | 8 | 112 | 1.6 | 6.4 | 0.00 | 0.00 | 0.00 | 49 | 1013.2 |
| 20260503053503 | 8 | 62 | 1.6 | 6.4 | 0.00 | 0.00 | 0.00 | 49 | 1013.3 |
| 20260503053031 | 8 | 190 | 1.6 | 6.4 | 0.00 | 0.00 | 0.00 | 49 | 1013.3 |
| 20260503052507 | 8 | 273 | 1.6 | 6.4 | 0.00 | 0.00 | 0.00 | 49 | 1013.3 |
| 20260503052008 | 8 | 352 | 1.6 | 6.4 | 0.00 | 0.00 | 0.00 | 49 | 1013.4 |
| 20260503051522 | 8 | 352 | 1.6 | 4.8 | 0.00 | 0.00 | 0.00 | 48 | 1013.5 |
| 20260503051007 | 8 | 215 | 1.6 | 4.8 | 0.00 | 0.00 | 0.00 | 48 | 1013.4 |
| 20260503050511 | 8 | 37 | 1.6 | 4.8 | 0.00 | 0.00 | 0.00 | 48 | 1013.4 |
| 20260503050024 | 8 | 250 | 1.6 | 8.0 | 0.00 | 0.00 | 0.00 | 48 | 1013.4 |
| 20260503045511 | 8 | 154 | 3.2 | 8.0 | 0.00 | 0.00 | 0.00 | 48 | 1013.5 |
| 20260503045003 | 8 | 215 | 1.6 | 8.0 | 0.00 | 0.00 | 0.00 | 48 | 1013.4 |
| 20260503044510 | 8 | 18 | 1.6 | 8.0 | 0.00 | 0.00 | 0.00 | 47 | 1013.5 |
| 20260503044003 | 8 | 340 | 1.6 | 9.7 | 0.00 | 0.00 | 0.00 | 47 | 1013.5 |
| 20260503043504 | 8 | 352 | 1.6 | 9.7 | 0.00 | 0.00 | 0.00 | 47 | 1013.5 |
| 20260503043025 | 8 | 24 | 3.2 | 8.0 | 0.00 | 0.00 | 0.00 | 46 | 1013.5 |
| 20260503042504 | 8 | 360 | 1.6 | 6.4 | 0.00 | 0.00 | 0.00 | 46 | 1013.5 |
| 20260503042007 | 8 | 272 | 1.6 | 8.0 | 0.00 | 0.00 | 0.00 | 46 | 1013.6 |
| 20260503041522 | 9 | 128 | 1.6 | 4.8 | 0.00 | 0.00 | 0.00 | 46 | 1013.6 |
| 20260503041007 | 9 | 341 | 1.6 | 6.4 | 0.00 | 0.00 | 0.00 | 46 | 1013.6 |